• In Hungary
  • List of Countries
  • For 7 days
  • Water Temperature
  • Satellite Maps
  • Weather Map
  • News
  • Weather Widgets
  • user-avatar
    Login

    Hourly Weather Podlesie

    Today, 23 October, Tuesday

    Time Temperature Precipitation Wind Pressure Humidity
    00:00 +4°C° 0 mm 4 mps 752 mmHg 88%
    01:00 +4°C° 0 mm 4 mps 752 mmHg 89%
    02:00 +4°C° 0 mm 4 mps 751 mmHg 89%
    03:00 +3°C° 0 mm 5 mps 750 mmHg 89%
    04:00 +3°C° 0 mm 5 mps 749 mmHg 89%
    05:00 +3°C° 0.3 mm 6 mps 748 mmHg 87%
    06:00 +3°C° 0.3 mm 7 mps 747 mmHg 84%
    07:00 +2°C° 0.3 mm 8 mps 746 mmHg 82%
    08:00 +4°C° 1.1 mm 8 mps 744 mmHg 81%
    09:00 +3°C° 1.1 mm 9 mps 743 mmHg 81%
    10:00 +3°C° 1.1 mm 10 mps 741 mmHg 81%
    11:00 +5°C° 0.8 mm 10 mps 740 mmHg 81%
    12:00 +5°C° 0.8 mm 10 mps 738 mmHg 81%
    13:00 +6°C° 0.8 mm 10 mps 737 mmHg 81%
    14:00 +6°C° 1.2 mm 10 mps 736 mmHg 81%
    15:00 +7°C° 1.2 mm 9 mps 735 mmHg 80%
    16:00 +9°C° 1.2 mm 8 mps 735 mmHg 80%
    17:00 +8°C° 0.2 mm 7 mps 734 mmHg 79%
    18:00 +8°C° 0.2 mm 7 mps 734 mmHg 78%
    19:00 +6°C° 0.2 mm 7 mps 733 mmHg 76%
    20:00 +6°C° 0.1 mm 7 mps 733 mmHg 76%
    21:00 +6°C° 0.1 mm 7 mps 733 mmHg 76%
    22:00 +5°C° 0.1 mm 7 mps 732 mmHg 76%
    23:00 +5°C° 0.1 mm 7 mps 732 mmHg 74%

    Tomorrow, 24 October, Wednesday

    Time Temperature Precipitation Wind Pressure Humidity
    00:00 +5°C° 0.1 mm 7 mps 731 mmHg 72%
    01:00 +5°C° 0.1 mm 7 mps 730 mmHg 70%
    02:00 +5°C° 0.3 mm 8 mps 731 mmHg 69%
    03:00 +3°C° 0.3 mm 9 mps 731 mmHg 68%
    04:00 +3°C° 0.3 mm 9 mps 731 mmHg 67%
    05:00 +2°C° 0.1 mm 9 mps 732 mmHg 64%
    06:00 +2°C° 0.1 mm 8 mps 733 mmHg 62%
    07:00 +1°C° 0.1 mm 8 mps 734 mmHg 59%
    08:00 +2°C° 0.1 mm 9 mps 734 mmHg 59%
    09:00 +3°C° 0.1 mm 10 mps 735 mmHg 58%
    10:00 +3°C° 0.1 mm 11 mps 735 mmHg 58%
    11:00 +3°C° 0.2 mm 12 mps 736 mmHg 58%
    12:00 +4°C° 0.2 mm 12 mps 736 mmHg 59%
    13:00 +4°C° 0.2 mm 13 mps 737 mmHg 60%
    14:00 +4°C° 0.1 mm 12 mps 737 mmHg 60%
    15:00 +4°C° 0.1 mm 12 mps 738 mmHg 60%
    16:00 +4°C° 0.1 mm 11 mps 739 mmHg 60%
    17:00 +3°C° 0 mm 10 mps 740 mmHg 61%
    18:00 +3°C° 0 mm 10 mps 741 mmHg 61%
    19:00 +3°C° 0 mm 9 mps 741 mmHg 62%
    20:00 +4°C° 0 mm 8 mps 742 mmHg 64%
    21:00 +4°C° 0 mm 7 mps 742 mmHg 65%
    22:00 +3°C° 0 mm 6 mps 743 mmHg 67%
    23:00 +3°C° 0 mm 6 mps 743 mmHg 69%

    Day after tomorrow, 25 October, Thursday

    Time Temperature Precipitation Wind Pressure Humidity
    00:00 +3°C° 0 mm 5 mps 743 mmHg 71%
    01:00 +2°C° 0 mm 5 mps 743 mmHg 73%
    02:00 +2°C° 0 mm 5 mps 742 mmHg 74%
    03:00 +2°C° 0 mm 5 mps 742 mmHg 75%
    04:00 +1°C° 0 mm 5 mps 742 mmHg 76%
    05:00 +2°C° 0.4 mm 5 mps 740 mmHg 80%
    06:00 +2°C° 0.4 mm 5 mps 739 mmHg 83%
    07:00 +2°C° 0.4 mm 6 mps 738 mmHg 87%
    08:00 +4°C° 1.1 mm 6 mps 738 mmHg 83%
    09:00 +6°C° 1.1 mm 7 mps 737 mmHg 80%
    10:00 +7°C° 1.1 mm 8 mps 736 mmHg 76%
    11:00 +8°C° 0.2 mm 9 mps 736 mmHg 73%
    12:00 +8°C° 0.2 mm 9 mps 736 mmHg 69%
    13:00 +8°C° 0.2 mm 9 mps 736 mmHg 65%
    14:00 +9°C° 0.1 mm 8 mps 736 mmHg 67%
    15:00 +8°C° 0.1 mm 7 mps 737 mmHg 68%
    16:00 +8°C° 0.1 mm 6 mps 737 mmHg 70%
    17:00 +7°C° 0 mm 6 mps 738 mmHg 73%
    18:00 +7°C° 0 mm 5 mps 738 mmHg 75%
    19:00 +6°C° 0 mm 5 mps 739 mmHg 78%
    20:00 +6°C° 0 mm 5 mps 739 mmHg 80%
    21:00 +6°C° 0 mm 5 mps 740 mmHg 82%
    22:00 +5°C° 0 mm 5 mps 740 mmHg 83%
    23:00 +5°C° 0 mm 5 mps 740 mmHg 84%

    26 October, Friday

    Time Temperature Precipitation Wind Pressure Humidity
    00:00 +5°C° 0 mm 5 mps 741 mmHg 86%
    01:00 +5°C° 0 mm 5 mps 741 mmHg 87%
    02:00 +5°C° 0 mm 4 mps 741 mmHg 88%
    03:00 +5°C° 0 mm 4 mps 741 mmHg 90%
    04:00 +4°C° 0 mm 4 mps 741 mmHg 92%
    05:00 +4°C° 0 mm 4 mps 741 mmHg 92%
    06:00 +5°C° 0 mm 4 mps 741 mmHg 92%
    07:00 +5°C° 0 mm 4 mps 742 mmHg 92%
    08:00 +5°C° 0 mm 4 mps 742 mmHg 88%
    09:00 +6°C° 0 mm 4 mps 742 mmHg 84%
    10:00 +7°C° 0 mm 4 mps 742 mmHg 80%
    11:00 +8°C° 0 mm 4 mps 742 mmHg 75%
    12:00 +8°C° 0 mm 5 mps 742 mmHg 71%
    13:00 +9°C° 0 mm 5 mps 741 mmHg 66%
    14:00 +8°C° 0 mm 4 mps 741 mmHg 69%
    15:00 +8°C° 0 mm 4 mps 741 mmHg 71%
    16:00 +8°C° 0 mm 3 mps 740 mmHg 74%
    17:00 +7°C° 0.1 mm 4 mps 740 mmHg 76%
    18:00 +7°C° 0.1 mm 4 mps 740 mmHg 79%
    19:00 +7°C° 0.1 mm 4 mps 740 mmHg 82%
    20:00 +7°C° 0.2 mm 5 mps 739 mmHg 83%
    21:00 +7°C° 0.2 mm 5 mps 739 mmHg 85%
    22:00 +8°C° 0.2 mm 5 mps 738 mmHg 86%
    23:00 +8°C° 0 mm 5 mps 738 mmHg 86%

    27 October, Saturday

    Time Temperature Precipitation Wind Pressure Humidity
    00:00 +8°C° 0 mm 5 mps 737 mmHg 86%
    01:00 +8°C° 0 mm 5 mps 737 mmHg 85%
    02:00 +8°C° 0 mm 5 mps 736 mmHg 86%
    03:00 +7°C° 0 mm 5 mps 736 mmHg 87%
    04:00 +7°C° 0 mm 5 mps 736 mmHg 87%
    05:00 +7°C° 0 mm 5 mps 736 mmHg 87%
    06:00 +7°C° 0 mm 5 mps 736 mmHg 87%
    07:00 +7°C° 0 mm 5 mps 736 mmHg 86%
    08:00 +7°C° 0 mm 6 mps 736 mmHg 80%
    09:00 +7°C° 0 mm 6 mps 737 mmHg 73%
    10:00 +6°C° 0 mm 7 mps 737 mmHg 66%
    11:00 +6°C° 0 mm 7 mps 737 mmHg 63%
    12:00 +6°C° 0 mm 7 mps 737 mmHg 61%
    13:00 +6°C° 0 mm 7 mps 737 mmHg 58%
    14:00 +7°C° 0 mm 6 mps 737 mmHg 60%
    15:00 +7°C° 0 mm 5 mps 737 mmHg 61%
    16:00 +6°C° 0 mm 5 mps 738 mmHg 63%
    17:00 +6°C° 0 mm 4 mps 738 mmHg 64%
    18:00 +6°C° 0 mm 4 mps 738 mmHg 65%
    19:00 +5°C° 0 mm 4 mps 738 mmHg 66%
    20:00 +5°C° 0 mm 4 mps 738 mmHg 66%
    21:00 +5°C° 0 mm 4 mps 738 mmHg 67%
    22:00 +5°C° 0 mm 4 mps 738 mmHg 67%
    23:00 +4°C° 0 mm 4 mps 738 mmHg 67%

    28 October, Sunday

    Time Temperature Precipitation Wind Pressure Humidity
    00:00 +4°C° 0 mm 3 mps 738 mmHg 68%
    01:00 +4°C° 0 mm 3 mps 738 mmHg 68%
    02:00 +4°C° 0 mm 3 mps 738 mmHg 70%
    03:00 +4°C° 0 mm 3 mps 738 mmHg 71%
    04:00 +4°C° 0 mm 2 mps 738 mmHg 73%
    05:00 +4°C° 0 mm 2 mps 738 mmHg 74%
    06:00 +4°C° 0 mm 2 mps 738 mmHg 75%
    07:00 +4°C° 0 mm 2 mps 738 mmHg 76%
    08:00 +4°C° 0 mm 2 mps 738 mmHg 74%
    09:00 +4°C° 0 mm 3 mps 738 mmHg 71%
    10:00 +5°C° 0 mm 3 mps 738 mmHg 69%
    11:00 +5°C° 0 mm 3 mps 738 mmHg 69%
    12:00 +5°C° 0 mm 4 mps 739 mmHg 68%
    13:00 +6°C° 0 mm 4 mps 739 mmHg 68%
    14:00 +5°C° 0 mm 4 mps 739 mmHg 68%
    15:00 +5°C° 0 mm 4 mps 740 mmHg 69%
    16:00 +5°C° 0 mm 4 mps 740 mmHg 69%
    17:00 +4°C° 0 mm 4 mps 740 mmHg 70%
    18:00 +4°C° 0 mm 4 mps 741 mmHg 72%
    19:00 +3°C° 0 mm 4 mps 742 mmHg 73%
    20:00 +3°C° 0 mm 4 mps 742 mmHg 72%
    21:00 +1°C° 0 mm 4 mps 743 mmHg 72%
    22:00 +1°C° 0 mm 4 mps 743 mmHg 72%
    23:00 +1°C° 0 mm 4 mps 743 mmHg 72%

    29 October, Monday

    Time Temperature Precipitation Wind Pressure Humidity
    00:00 +1°C° 0 mm 4 mps 744 mmHg 71%
    01:00 0°C° 0 mm 4 mps 744 mmHg 71%
    02:00 +1°C° 0 mm 5 mps 744 mmHg 73%
    03:00 +1°C° 0 mm 5 mps 744 mmHg 74%
    04:00 +1°C° 0 mm 5 mps 745 mmHg 75%
    05:00 +1°C° 0 mm 5 mps 745 mmHg 77%
    06:00 +1°C° 0 mm 5 mps 746 mmHg 79%
    07:00 +1°C° 0 mm 5 mps 746 mmHg 81%
    08:00 +3°C° 0 mm 4 mps 747 mmHg 76%
    09:00 +4°C° 0 mm 4 mps 747 mmHg 71%
    10:00 +5°C° 0 mm 4 mps 747 mmHg 66%
    11:00 +5°C° 0 mm 4 mps 748 mmHg 63%
    12:00 +6°C° 0 mm 4 mps 748 mmHg 60%
    13:00 +6°C° 0 mm 4 mps 748 mmHg 57%
    14:00 +5°C° 0 mm 3 mps 748 mmHg 60%
    15:00 +6°C° 0 mm 2 mps 747 mmHg 64%
    16:00 +5°C° 0 mm 2 mps 747 mmHg 68%
    17:00 +4°C° 0 mm 2 mps 748 mmHg 69%
    18:00 +4°C° 0 mm 2 mps 748 mmHg 70%
    19:00 +5°C° 0 mm 1 mps 748 mmHg 71%
    20:00 +5°C° 0 mm 1 mps 748 mmHg 71%
    21:00 +5°C° 0 mm 1 mps 748 mmHg 71%
    22:00 +5°C° 0 mm 1 mps 748 mmHg 71%
    23:00 +5°C° 0.1 mm 1 mps 747 mmHg 72%
    Show more